Location: Arbon
(43.0005°N, 0.7472°E)
Time: 11:50:38
(UTC+00:00)

Ariane Rocket - Pass Details

Date: 22 April 2026
Orbit: 755 x 763 km, 98.4° (Epoch: 20 May)

Event Time Altitude Azimuth Distance (km) Brightness Sun altitude
Exits shadow 20:57:14 38° 89° (E) 1,149 3.5 -21.2°
Maximum altitude 20:57:56 40° 69° (ENE) 1,110 3.6 -21.3°
Drops below altitude 10° 21:02:37 10° 1° (N) 2,294 6.0 -21.9°
Sets 21:05:02 0° 354° (N) 3,225 7.0 -22.3°
